This demonstration page uses our WeatherBlox Daily Observations layout. Learn more.

Left ArrowRight Arrow

Hourly Observations for November 19, 2016

Temp ( °F °C ) Dew Point ( °F °C ) Humidity (%) Winds ( mph kmh ) Pressure ( in mb ) Visibility ( mi km ) Precip ( " mm )
12:59 am 00:59 Clear 48 8.9 46 7.8 93 93 WSW 3 6 30.07 1018 7 11 0.00 0.00
1:59 am 01:59 Clear with Mist and Fog 47 8.3 45 7.2 93 93 Calm 30.07 1018 5 8 0.00 0.00
2:59 am 02:59 Clear with Mist and Fog 47 8.3 45 7.2 93 93 SW 3 6 30.06 1018 4 6 0.00 0.00
3:59 am 03:59 Clear with Mist and Fog 46 7.8 44 6.7 93 93 SW 6 9 30.05 1018 5 8 0.00 0.00
4:59 am 04:59 Clear with Mist and Fog 47 8.3 45 7.2 93 93 SW 3 6 30.04 1017 5 8 0.00 0.00
5:59 am 05:59 Clear with Mist and Fog 47 8.3 44 6.7 90 90 S 3 6 30.02 1017 4 6 0.00 0.00
6:59 am 06:59 Sunny with Mist and Fog 45 7.2 43 6.1 93 93 SW 3 6 30.01 1016 3 5 0.00 0.00
7:04 am 07:04 Sunny with Mist and Fog 45 7.2 43 6.1 93 93 SW 3 6 30.00 1016 2 3 0.00 0.00
7:06 am 07:06 Sunny with Mist and Fog 45 7.2 44 6.7 97 97 SW 3 6 30.00 1016 3 5 0.00 0.00
7:59 am 07:59 Sunny with Mist and Fog 52 11.1 49 9.4 89 89 SW 3 6 30.00 1016 3 5 0.00 0.00
8:59 am 08:59 Hazy 58 14.4 51 10.6 78 78 SW 5 7 29.97 1015 4 6 0.00 0.00
9:59 am 09:59 Hazy 65 18.3 50 10 59 59 SSW 7 11 29.94 1014 5 8 0.00 0.00
10:59 am 10:59 Hazy 69 20.6 49 9.4 49 49 SW 8 13 29.92 1013 6 10 0.00 0.00
11:59 am 11:59 Sunny 73 22.8 48 8.9 41 41 SW 9 15 29.86 1011 7 11 0.00 0.00
12:59 pm 12:59 Sunny 75 23.9 45 7.2 34 34 S 9 15 29.80 1009 8 13 0.00 0.00
1:59 pm 13:59 Mostly Sunny 76 24.4 45 7.2 33 33 S 10 17 29.75 1008 8 13 0.00 0.00
2:59 pm 14:59 Partly Cloudy 75 23.9 45 7.2 34 34 S 14 22 29.71 1006 8 13 0.00 0.00
3:59 pm 15:59 Partly Cloudy 73 22.8 47 8.3 40 40 SW 9 15 29.71 1006 8 13 0.00 0.00
4:59 pm 16:59 Mostly Cloudy 70 21.1 48 8.9 46 46 SW 7 11 29.70 1006 9 14 0.00 0.00
5:59 pm 17:59 Cloudy 66 18.9 45 7.2 47 47 WNW 22 35 29.76 1008 10 16 0.00 0.00
6:59 pm 18:59 Cloudy with Light Rain 60 15.6 43 6.1 53 53 WNW 23 37 29.79 1009 9 14 0.00 0.03
7:59 pm 19:59 Cloudy 57 13.9 29 -1.7 34 34 NW 30 48 29.84 1011 10 16 0.00 0.03
8:59 pm 20:59 Cloudy 54 12.2 27 -2.8 35 35 NW 29 46 29.88 1012 10 16 0.00 0.00
9:59 pm 21:59 Mostly Clear 50 10 28 -2.2 43 43 NW 29 46 29.91 1013 10 16 0.00 0.00
10:59 pm 22:59 Mostly Clear 47 8.3 25 -3.9 42 42 NW 29 46 29.92 1013 10 16 0.00 0.00
11:59 pm 23:59 Mostly Clear 46 7.8 21 -6.1 37 37 NW 25 41 29.93 1014 10 16 0.00 0.00

Powered by AerisWeather